Location: Grums
(59.3529°N, 13.1129°E)
Time: 12:49:18
(UTC+02:00)

Nauka - Pass Details

Date: 27 September 2021
Orbit: 417 x 423 km, 51.6° (Epoch: 20 October)

Event Time Altitude Azimuth Distance (km) Brightness Sun altitude
Rises 20:12:54 0° 254° (WSW) 2,365 ? -11.1°
Reaches altitude 10° 20:15:18 10° 239° (WSW) 1,501 ? -11.4°
Maximum altitude 20:17:56 21° 187° (S) 994 ? -11.7°
Enters shadow 20:19:49 14° 145° (SE) 1,279 ? -11.9°
